Starlink 11521

operational
NORAD ID: 62597 Int'l Des: 2025-008 Owner: SPXS Country: US Constellation: starlink
LEOCIRCULAR

About Starlink 11521

Description loading...

Live Position

Loading 3D Globe...

Upcoming Passes

Altitude History

Altitude vs Time

uPlot chart will show altitude changes over time

Two-Line Element Set

1 62597U 25008L 26035.16589583 .00241043 00000-0 18228-2 0 9992
2 62597 42.9993 328.0687 0001762 263.2098 96.8570 15.70908976 62013
Epoch: Feb 4, 2026 • Age: 5 hours

Current Status

Altitude 356.7 km
Velocity 7.70 km/s
Sub-Earth Point 24.79°N, 91.08°E
Launch Date Jan 13, 2025
Age 1 years
Type internet

Technical Details

Classification Payload
Mass 960.00 kg
Dry Mass 910.00 kg
Total Mass 960.00 kg
Length 0.30 m
Diameter 4.10 m
Span 29.00 m
Shape Box + pan
Manufacturer SPXS
Bus Type Starlink V2MD
Phase Status In Orbit
Owner/State SPXS/US

Large Constellations

Loading constellations...